Location: Härggis
(46.9540°N, 8.4897°E)
Time: 00:14:03
(UTC+00:00)

AQUA - Pass Details

Date: 27 May 2022
Orbit: 701 x 703 km, 98.2° (Epoch: 02 July)

Event Time Altitude Azimuth Distance (km) Brightness Sun altitude
Rises 01:54:50 0° 10° (N) 3,103 8.4 -13.7°
Reaches altitude 10° 01:57:07 10° 6° (N) 2,180 7.3 -13.5°
Maximum altitude 02:01:48 57° 289° (WNW) 828 4.1 -13.0°
Enters shadow 02:05:10 18° 215° (SW) 1,670 5.1 -12.6°
